Regional Weather Roundup
Issued by NWS

Home | Current Version | Previous Version | Text Only | Print | Product List | Glossary On
Versions: 1 2 3 4 5 6 7 8 9 10 11 12 13 14 15 16 17 18 19 20 21 22 23 24 25 26 27 28 29 30 31 32 33 34 35 36 37 38 39 40 41 42 43 44 45 46 47 48 49 50
000
ASUS43 KMKX 152300
RWRWI

WISCONSIN REGIONAL WEATHER ROUNDUP
NATIONAL WEATHER SERVICE MILWAUKEE/SULLIVAN WI
500 PM CST FRI DEC 15 2017

NOTE: "FAIR" INDICATES FEW OR NO CLOUDS BELOW 12,000 FEET WITH NO
SIGNIFICANT WEATHER AND/OR OBSTRUCTIONS TO VISIBILITY.

WIZ001-002-006>008-014>016-023>028-160000-
NORTHWEST WISCONSIN

CITY           SKY/WX    TMP DP  RH WIND       PRES   REMARKS
SUPERIOR ARPT  CLOUDY    17   7  66 CALM      29.80S
ASHLAND        CLEAR      7   4  87 CALM      29.80F
HAYWARD        CLOUDY    16   8  71 CALM      29.77S
SIREN          CLOUDY    19  10  68 CALM      29.78F
CUMBERLAND     CLOUDY    14   9  79 S3        29.78S
RICE LAKE      CLOUDY    16  10  76 CALM      29.80F
CHETEK         CLOUDY    15   9  76 CALM      29.79F
LADYSMITH      CLOUDY    15   8  71 CALM      29.80S
EAU CLAIRE     CLOUDY    22  15  75 CALM      29.80S
MENOMONIE      CLOUDY    24  17  75 CALM      29.80F
NEW RICHMOND   CLOUDY    22  15  74 S3        29.79S
OSCEOLA        CLOUDY    22  15  71 CALM      29.82S
$$

WIZ003>005-009-010-017-018-160000-
NORTH CENTRAL WISCONSIN

CITY           SKY/WX    TMP DP  RH WIND       PRES   REMARKS
MANITOWISH WTR MOCLDY     6   2  84 CALM      29.73F
ARBOR VITAE    CLEAR     11   7  83 CALM      29.74S
WOODRUFF       CLEAR     11   7  83 CALM      29.74S
RHINELANDER    PTCLDY     5   3  91 CALM      29.74S
EAGLE RIVER    CLOUDY    12   4  70 W6        29.73S WCI   2
LAND O LAKES   CLOUDY    12   5  74 W3        29.75R
PHILLIPS       CLEAR      5   2  84 CALM      29.75S
TOMAHAWK       CLEAR      6   3  86 CALM      29.76S
MEDFORD        CLOUDY    14   7  72 CALM      29.76R
MERRILL        PTCLDY     9   5  82 CALM      29.78S
$$

WIZ029-030-035-036-043>047-160000-
CENTRAL WISCONSIN

CITY           SKY/WX    TMP DP  RH WIND       PRES   REMARKS
WAUSAU         CLOUDY    12   7  80 CALM      29.77S
MOSINEE        MOCLDY    16   9  73 CALM      29.79S
MARSHFIELD     CLOUDY    15  10  80 NW5       29.77S WCI   8
STEVENS POINT  CLOUDY    18  10  70 W3        29.80S
WAUPACA        CLOUDY    23  12  64 W5        29.82S WCI  16
WAUTOMA        CLOUDY    24  16  71 CALM      29.82S
WISC RAPIDS    CLOUDY    22  13  68 NW3       29.82R
CAMP DOUGLAS   CLOUDY    28  23  80 W6        29.80S WCI  22
$$

WIZ011>013-019>022-031-037>040-048>050-160000-
NORTHEAST WISCONSIN

CITY           SKY/WX    TMP DP  RH WIND       PRES   REMARKS
ANTIGO         PTCLDY     9   4  79 W5        29.76R WCI   1
SHAWANO        CLEAR     18   8  64 W3        29.82R
OCONTO         CLEAR     15   6  68 W3        29.83R
STURGEON BAY   CLOUDY    17   9  70 W8        29.82R WCI   7
GREEN BAY      PTCLDY    16   6  65 W3        29.83S
MANITOWOC      CLEAR     15   7  70 NW5       29.84S WCI   8
APPLETON       MOCLDY    18   7  62 NW5       29.80S WCI  11
CLINTONVILLE   NOT AVBL
OSHKOSH        CLOUDY    22  13  68 N3        29.82S
$$

WIZ032>034-041-042-053>061-160000-
SOUTHWEST WISCONSIN

CITY           SKY/WX    TMP DP  RH WIND       PRES   REMARKS
LA CROSSE      CLOUDY    32  27  81 S5        29.82S WCI  27
SPARTA         CLOUDY    30  25  82 SW5       29.82S WCI  25
VIROQUA        CLOUDY    29  28  96 CALM      29.80R
BOSCOBEL       CLOUDY    32  27  81 CALM      29.85S
PRAIRIE DU CHI CLOUDY    34  27  75 CALM      29.83F
PLATTEVILLE    CLOUDY    32  29  88 S6        29.85S WCI  26
$$

WIZ056-057-062-063-064-067-068-160000-
SOUTH CENTRAL WISCONSIN

CITY           SKY/WX    TMP DP  RH WIND       PRES   REMARKS
REEDSBURG      CLOUDY    29  24  80 SW6       29.81S WCI  23
BARABOO/DELLS  CLOUDY    29  23  79 SW6       29.81S WCI  23
LONE ROCK      NOT AVBL
MINERAL POINT  CLOUDY    32  32 100 SW7       29.82F WCI  26
MADISON        FLURRIES  30  24  78 W8        29.84R WCI  22
MIDDLETON      CLOUDY    32  26  78 SW8       29.84R WCI  25
WATERTOWN      CLOUDY    29  24  81 SW6       29.83S WCI  23
MONROE         FLURRIES  30  27  86 SW12      29.84S WCI  21
JANESVILLE     CLOUDY    32  25  74 SW6       29.86S WCI  26
$$

WIZ051-052-058>065-066-070>072-160000-
SOUTHEAST WISCONSIN

CITY           SKY/WX    TMP DP  RH WIND       PRES   REMARKS
MILWAUKEE      MOCLDY    31  22  69 SW8       29.84F WCI  23
WAUKESHA       MOCLDY    27  18  69 W7        29.84S WCI  19
MILWAUKEE/TIMM CLOUDY    28  18  64 SW5       29.85S WCI  23
RACINE         CLOUDY    31  23  72 SW8       29.87S WCI  23
BURLINGTON     CLOUDY    30  25  81 W8        29.86S WCI  22
KENOSHA        CLOUDY    31  23  72 W10       29.86S WCI  22
FOND DU LAC    CLOUDY    24  14  65 CALM      29.82S
SHEBOYGAN      CLOUDY    19  11  70 NW3       29.83S
WEST BEND      MOCLDY    23  18  80 CALM      29.83S
JUNEAU         MOCLDY    22  16  75 CALM      29.83F
$$

LSZ147-162-160000-
LAKE SUPERIOR

STATION/POSITION TIME  TEMP    WIND        PRES    WAVE
                       AIR SEA DIR/SP/G            HT/PER
                 (UTC) (F)     (DEG/KT/KT) (MB)    (FT/S)
DEVILS ISLAND    2200   17     270/  5/  8 1010.5F
SAXON HARBOR     2230   13                 1009.5S
$$

LMZ867-665-643>646-160000-
LAKE MICHIGAN

STATION/POSITION TIME  TEMP    WIND        PRES    WAVE
                       AIR SEA DIR/SP/G            HT/PER
                 (UTC) (F)     (DEG/KT/KT) (MB)    (FT/S)
NORTHPORT PIER   2240   22     270/  2/ 10 1008.8R
KEWAUNEE LAKESHO 2230   16     290/  2/  4 1009.5R
SHEBOYGAN LAKESH 2200   24     270/  6/  8 1011.3R
PORT WASHINGTON  2240   25     310/  2/  3 1011.9S
MILWAUKEE LAKESH 2230   31     240/  7/  9   N/A
KENOSHA   LAKESH 2200   31     240/  9/ 17 1011.9
$$

TC  - TEMPERATURE IN CELSIUS
VSB - VISIBILITY IN STATUTE MILES
WCI - WIND CHILL INDEX
HX  - HEAT INDEX





USA.gov is the U.S. government's official web portal to all federal, state and local government web resources and services.